Погода в Баджиле

Йемен     14°53′52″N   43°12′53″E
темп.,
°C
ветер,
м/с
пор.,
м/с
влажн.,
%
обл.,
%
осадки,
мм/ч
давл.,
гПа
погр.,
м
27 ноября, сб
сб2700:00+29ю12593 0.1 1013268
03:00+27зюз22695 0.2 1013168
06:00+26юз11770 0.0 1014131
09:00+28зюз22650 0.0 1016643
12:00+32зсз32470 0.0 10131557
15:00+33з754514 0.0 10111486
18:00+29зсз32554 1.3 1013452
21:00+28всв21600 3.0 1014320
28 ноября, вс
вс2800:00+28в22600 0.0 1014182
03:00+27юз33610 0.0 1013145
06:00+26ююз11750 0.0 1014104
09:00+28зсз11610 0.0 1015537
12:00+33з21410 0.0 10131545
15:00+33з65400 0.0 10101462
18:00+29з33510 0.0 1012526
21:00+29з21560 0.0 1014409
29 ноября, пн
пн2900:00+27зюз22610 0.0 1014241
03:00+26зюз11670 0.0 1013165
06:00+25зсз22760 0.0 101499
09:00+28сз22610 0.0 1015591
12:00+32зсз42420 0.0 10131627
15:00+33з64410 0.0 10101612
18:00+29зюз33550 0.0 1012592
21:00+28ююз32590 0.0 1015421
30 ноября, вт
вт3000:00+27юз11621 0.1 1014171
03:00+26зюз11650 0.1 1013117
06:00+25з22700 0.0 101499
09:00+27зсз11610 0.0 1015604
12:00+31зсз22440 0.0 10131578
15:00+32зюз64420 0.0 10101745
18:00+29юз43520 0.0 1011653
21:00+28ю33550 0.0 1013480
1 декабря, ср
ср100:00+27юз12580 0.0 1012181
03:00+26зюз23680 0.0 1011230
06:00+25зсз11730 0.0 1012125
09:00+27зсз22610 0.0 1013634
12:00+31зсз21450 0.0 10111467
15:00+32зюз64400 0.0 10081745
18:00+29юз55505 0.0 1010689
21:00+28ююв46510 0.0 1012582